• Join FlightAware (Why Join?)
  • Login
  • US Flag 
08:35PM EST


 

Airport Tracker/Info


-or-


 

Live Flight TrackerFlight Track Log ✈ N70AG ✈ 21-Jul-2013 ✈ KSAN - KMRY

Flight Track Log - Related Links

Times and Time Zones

All times are in EDT time to prevent confusion due to time zone crossing. See the N70AG flight status page for this flight to view local times or setup timezone preferences in your user account.

Time Position Orientation Groundspeed Altitude Reporting Facility
EDT Latitude Longitude Course Direction KTS MPH feet Rate Location/Type
07:28PM 32.7844 -117.2975 303° West 251 289 6,100  Level Los Angeles Center
07:29PM 32.8383 -117.3861 306° West 283 326 10,900 3,339 Climbing Los Angeles Center
07:30PM 32.8950 -117.4792 306° West 340 391 13,000 2,081 Climbing Los Angeles Center
07:31PM 32.9847 -117.5569 324° Northwest 389 448 15,200 2,323 Climbing Los Angeles Center
07:32PM 33.0681 -117.6569 315° West 420 483 17,800 2,419 Climbing Los Angeles Center
07:33PM 33.1419 -117.7747 307° West 439 505 20,200 2,371 Climbing Los Angeles Center
07:34PM 33.2114 -117.9036 303° West 455 524 22,700 2,323 Climbing Los Angeles Center
07:35PM 33.2933 -118.0264 309° West 466 536 25,000 2,829 Climbing Los Angeles Center
07:36PM 33.3950 -118.1683 311° West 467 537 28,500 2,878 Climbing Los Angeles Center
07:37PM 33.4789 -118.2867 310° West 463 533 30,900 2,565 Climbing Los Angeles Center
07:38PM 33.5619 -118.4078 309° West 463 533 33,800 2,371 Climbing Los Angeles Center
07:39PM 33.6481 -118.5292 310° West 466 536 35,800 1,935 Climbing Los Angeles Center
07:40PM 33.7339 -118.6508 310° West 471 542 37,800 1,065 Climbing Los Angeles Center
07:41PM 33.8206 -118.7722 311° West 474 545 38,000 97 Climbing Los Angeles Center
07:42PM 33.9125 -118.9053 310° West 516 594 38,000  Level Los Angeles Center
07:43PM 34.0069 -119.0411 310° West 528 608 38,000  Level Los Angeles Center
07:44PM 34.1000 -119.1767 310° West 527 606 38,000  Level Los Angeles Center
07:45PM 34.2125 -119.3400 310° West 528 608 38,000 -339 Level Los Angeles Center
07:46PM 34.3056 -119.4772 309° West 528 608 37,300 -871 Descending Los Angeles Center
07:47PM 34.3981 -119.6122 310° West 525 604 36,200 -629 Descending Los Angeles Center
07:48PM 34.4864 -119.7431 309° West 506 582 36,000 -97 Descending Los Angeles Center
07:49PM 34.5878 -119.8628 316° Northwest 507 583 36,000  Level Los Angeles Center
07:51PM 34.6972 -119.9775 319° Northwest 511 588 36,000 -221 Level Los Angeles Center
07:52PM 34.8444 -120.1369 318° Northwest 510 587 35,500 -919 Descending Los Angeles Center
07:53PM 34.9517 -120.2533 318° Northwest 516 594 34,100 -1,452 Descending Los Angeles Center
07:54PM 35.0561 -120.3694 318° Northwest 516 594 32,500 -926 Descending Los Angeles Center
07:55PM 35.1581 -120.4822 318° Northwest 510 587 32,000 -219 Descending Los Angeles Center
07:56PM 35.2831 -120.6233 317° Northwest 524 603 32,000  Level Los Angeles Center
07:57PM 35.4119 -120.7628 319° Northwest 521 600 32,000  Level Los Angeles Center
07:58PM 35.5350 -120.8539 329° Northwest 520 598 32,000 -581 Level Los Angeles Center
07:59PM 35.6503 -120.9331 331° Northwest 519 597 30,800 -2,085 Descending Los Angeles Center
08:00PM 35.7719 -121.0211 330° Northwest 511 588 27,900 -2,746 Descending Oakland Center
08:01PM 35.8969 -121.1061 331° Northwest 512 589 25,400 -2,634 Descending Oakland Center
08:02PM 36.0128 -121.1872 330° Northwest 479 551 22,500 -3,171 Descending Oakland Center
08:03PM 36.1214 -121.2656 330° Northwest 449 517 18,900 -4,098 Descending Oakland Center
08:04PM 36.2461 -121.3539 330° Northwest 427 491 14,100 -4,195 Descending Oakland Center
08:05PM 36.3375 -121.4189 330° Northwest 375 432 10,300 -3,073 Descending Oakland Center
08:06PM 36.4147 -121.4758 329° Northwest 324 373 7,800 -2,164 Descending Oakland Center
08:07PM 36.4819 -121.5367 324° Northwest 301 346 5,900 -1,610 Descending Oakland Center
08:08PM 36.5092 -121.6261 291° West 281 323 4,500 -1,415 Descending Oakland Center
08:09PM 36.5336 -121.7022 292° West 269 310 3,000 -1,328 Descending Oakland Center
08:10PM 36.5597 -121.7850 291° West 242 278 1,800 -683 Descending Oakland Center
08:11PM 36.5786 -121.8492 290° West 235 270 1,600 -194 Descending Oakland Center